Theta_e
333 333 332 332 331 329 333 333 332 332 331 331 330 328 325 323 319 317 316 319 320 325 325 322 326 329 330 329 329 326 325 323 322 324 324 322 320 316 316 317 317 317 317 317 316 315 316 315 315 318 318 320 320 319 316 315 314 314 320 321 319 316 314 313 314 319 320 321 319 316 313 311 310 309
332 332 332 333 331 331 330 333 333 331 330 329 328 329 327 326 322 320 317 317 321 321 324 325 324 328 328 330 327 326 324 322 323 323 323 323 321 315 315 315 312 313 315 313 312 312 313 316 317 319 318 319 318 314 314 313 313 316 320 320 319 316 315 313 316 317 318 319 317 314 312 311 311 311
332 332 331 332 332 333 332 333 332 331 331 330 330 330 330 326 326 324 321 317 322 325 322 324 329 327 329 330 327 325 323 322 322 321 323 322 319 316 316 314 312 312 313 310 310 313 314 313 315 317 319 319 317 316 316 315 315 319 320 317 316 317 317 315 315 316 317 317 315 313 312 311 311 311
331 331 330 330 331 333 333 333 332 332 332 333 327 326 326 326 327 328 324 320 320 326 325 325 327 329 328 329 327 325 322 322 320 319 323 321 318 318 317 312 312 313 312 310 313 319 317 314 317 318 318 318 318 318 317 316 317 318 315 313 314 315 315 314 314 317 317 317 317 314 313 311 312 312
330 330 330 330 331 333 332 332 331 331 331 330 326 326 326 327 330 329 325 323 320 322 326 328 326 328 329 327 328 323 319 319 319 316 320 321 319 319 319 316 311 311 311 309 310 312 310 311 318 316 315 317 316 315 313 313 313 313 312 311 310 310 313 314 312 315 317 318 317 317 315 314 314 313
329 329 329 329 331 331 330 331 331 330 330 330 328 327 327 328 329 329 325 324 320 319 324 325 329 328 328 325 328 322 318 316 316 313 321 321 319 318 320 318 315 310 310 308 308 310 310 309 312 311 309 311 310 310 309 308 308 311 307 306 308 313 314 315 311 310 314 316 316 316 316 315 315 314
330 329 328 329 330 330 329 330 330 330 330 331 330 329 330 328 327 328 328 325 321 321 323 326 325 325 327 325 325 323 320 317 316 317 321 319 317 317 319 319 319 309 308 307 308 309 308 308 309 309 309 309 308 308 308 307 306 306 306 303 307 308 309 308 309 308 310 315 315 314 314 314 315 316
329 328 328 328 330 330 329 329 329 330 329 330 328 327 327 326 326 327 328 327 324 323 320 325 325 325 325 325 327 324 320 318 317 318 321 321 318 318 318 317 318 312 308 308 308 309 309 307 307 307 307 307 307 307 306 306 305 304 305 305 305 305 305 305 304 304 307 311 313 314 313 313 314 315
329 329 328 328 329 329 329 329 329 330 329 329 328 326 326 326 327 328 329 326 326 323 321 324 325 325 325 326 324 324 320 319 317 315 320 318 317 315 317 317 316 313 308 308 308 307 307 307 306 306 306 306 306 305 305 305 305 305 304 304 304 303 303 303 303 303 303 303 304 310 312 311 313 314
328 328 328 328 329 329 328 327 328 329 329 328 327 328 327 327 326 326 328 328 327 325 324 323 323 323 324 323 323 326 323 320 317 314 314 318 317 313 311 316 318 316 312 312 311 308 307 306 306 306 306 305 304 304 304 304 305 305 304 303 303 302 302 302 301 301 300 301 300 302 305 307 308 310
329 328 328 328 329 328 328 328 328 328 328 328 326 327 328 327 326 325 326 327 326 324 323 322 322 322 323 324 322 324 326 323 319 314 311 312 315 311 309 312 315 315 313 312 309 310 310 310 308 306 304 304 305 304 304 304 305 304 303 302 302 302 301 300 300 300 299 299 299 299 299 301 304 307
328 328 328 328 328 329 329 330 329 327 328 327 325 326 327 327 326 324 325 324 323 323 322 322 320 321 321 320 322 325 323 320 320 316 312 309 311 310 311 313 312 312 311 313 313 311 309 308 308 305 305 305 304 304 304 304 304 304 302 301 300 300 299 299 300 299 299 299 299 298 298 297 298 302
327 328 328 328 328 328 331 324 323 325 325 327 324 326 327 325 324 324 324 323 322 321 320 319 320 319 320 320 319 319 319 317 317 316 313 312 312 311 310 312 313 311 310 311 311 312 313 312 311 311 309 309 306 305 305 306 305 304 301 300 299 299 299 299 299 299 300 299 299 299 298 298 297 297
326 327 328 328 326 322 321 317 313 310 313 320 326 329 325 325 324 325 324 323 320 320 319 318 318 318 318 319 321 319 318 319 319 316 313 312 313 310 309 310 311 312 310 309 307 307 312 309 308 309 308 309 309 308 306 306 306 304 300 300 299 299 299 298 299 299 299 299 299 298 298 298 298 296
325 326 326 326 326 323 319 318 310 308 307 311 312 316 319 322 325 325 325 323 320 319 319 318 318 318 317 318 320 319 319 319 317 315 313 313 312 309 307 305 310 313 312 310 308 307 309 307 304 306 306 306 307 308 307 304 304 303 301 301 300 300 299 299 299 298 298 298 298 298 298 298 298 296
323 324 327 327 328 328 326 324 318 311 305 303 304 305 308 310 312 315 325 325 322 321 319 318 317 320 318 319 319 319 318 318 317 316 314 313 312 310 308 308 308 312 315 311 309 309 309 307 305 305 307 309 309 308 305 302 301 300 300 300 300 300 300 299 299 299 298 297 297 297 297 297 296 295
324 323 323 323 326 329 324 326 324 321 313 303 301 302 304 302 301 300 300 309 324 323 321 319 319 320 321 321 322 324 322 323 316 316 314 314 314 313 311 310 310 311 314 313 310 308 309 309 305 310 308 305 304 302 300 300 300 300 300 299 299 299 299 299 299 298 297 297 297 297 297 296 296 295
324 323 323 323 324 325 324 325 326 324 319 315 312 313 317 316 306 299 296 299 307 318 323 323 321 322 323 322 322 323 323 319 318 317 315 316 315 315 314 318 315 313 315 311 310 307 309 310 311 309 309 308 305 303 300 299 300 300 300 299 299 299 299 299 298 298 297 297 297 297 297 296 295 295
325 324 324 323 323 323 324 325 324 325 321 319 319 320 323 320 322 320 319 321 323 325 327 326 325 324 327 326 323 324 325 324 322 321 320 322 320 320 317 316 314 314 319 320 311 306 314 316 311 309 307 306 304 303 300 300 300 300 299 299 299 299 298 298 298 298 298 298 298 297 296 296 295 295
324 324 324 324 322 323 324 316 308 314 323 321 321 321 319 314 311 304 297 293 293 300 320 325 324 325 307 306 318 321 324 323 323 319 320 320 319 317 313 311 314 313 315 316 316 314 316 316 311 308 308 306 304 304 303 299 300 300 299 299 299 298 298 298 298 298 298 298 297 297 297 296 295 294
323 323 325 324 323 323 323 312 304 304 311 324 322 322 316 315 312 308 305 296 293 294 294 295 295 294 295 296 296 297 304 317 320 320 317 316 318 315 312 312 312 311 311 311 314 316 314 315 312 308 308 306 305 304 303 303 299 299 299 299 299 298 298 298 298 298 298 297 297 297 296 296 295 295
308 307 304 315 323 322 322 306 300 301 311 323 322 318 315 312 310 310 310 307 301 295 295 296 296 296 296 297 298 298 299 302 313 320 314 317 316 312 312 309 309 309 309 307 309 312 314 316 314 311 310 307 306 305 305 304 301 299 299 298 298 298 298 298 298 298 298 297 297 297 296 295 295 296
304 304 302 298 299 312 315 303 300 300 311 322 319 319 315 311 310 309 310 309 309 310 311 311 312 309 307 310 309 306 300 302 307 314 316 318 315 310 310 311 309 307 306 307 307 310 311 313 314 312 309 306 308 307 305 303 302 302 301 299 299 298 298 298 298 298 297 297 296 296 296 296 297 300
299 299 300 297 292 291 292 297 297 298 304 319 319 319 314 311 309 311 311 312 311 311 311 310 310 309 310 309 308 308 309 309 309 309 311 312 313 312 312 312 310 307 303 304 303 309 309 310 308 309 308 304 300 307 305 304 303 304 303 301 299 297 297 297 297 297 297 296 296 295 296 296 297 298
295 295 295 296 293 291 291 292 295 300 301 305 319 319 314 312 309 308 311 309 306 309 306 304 305 306 306 306 307 307 306 306 306 306 306 307 308 309 308 304 301 300 302 304 301 308 307 307 307 307 306 305 306 306 306 305 305 305 304 301 298 298 299 299 297 297 295 294 294 295 295 296 296 297
293 293 294 294 293 291 292 292 292 294 298 301 312 310 299 298 300 311 310 309 308 307 305 304 304 304 303 303 303 303 304 305 305 305 305 305 306 307 308 305 302 300 301 306 301 308 306 303 304 304 305 304 302 304 304 305 306 306 305 303 300 300 301 299 298 297 298 298 296 295 295 296 296 296
292 294 294 294 293 291 291 291 292 294 295 298 300 296 297 297 298 302 307 306 306 305 304 303 301 301 302 302 301 301 303 304 305 305 305 305 305 304 305 306 306 305 306 306 307 308 307 304 303 303 301 301 300 300 299 298 298 301 300 299 301 301 301 300 299 300 299 296 294 294 294 293 294 294
293 293 293 293 291 292 292 292 292 292 294 295 293 294 295 297 299 306 304 302 301 299 299 299 299 299 300 300 301 302 303 304 305 304 305 305 305 304 304 304 304 305 305 306 305 305 304 301 301 302 302 300 299 297 297 299 299 298 297 300 300 300 301 300 299 299 299 299 298 298 296 295 296 296
294 291 291 291 292 291 292 293 294 294 293 292 293 294 297 302 306 304 303 302 301 299 298 298 299 298 299 300 301 302 302 302 303 303 303 304 303 303 302 301 301 302 304 304 303 302 302 302 302 302 301 299 298 298 298 297 296 296 297 297 296 298 299 301 300 299 298 299 298 297 297 297 297 298
291 291 291 291 292 292 293 295 295 295 295 293 293 294 297 301 301 301 300 299 299 298 297 296 297 298 299 299 300 301 302 302 302 302 301 301 300 300 299 299 299 300 301 301 301 301 301 301 301 301 300 299 298 297 297 296 296 297 296 296 296 298 299 300 299 299 299 297 297 297 297 297 296 297
293 292 292 292 291 292 291 292 292 293 294 295 296 297 297 297 298 299 299 298 298 297 297 296 297 298 298 299 298 298 298 298 299 300 300 300 299 299 299 297 296 297 299 300 299 299 301 301 301 300 297 297 298 298 298 298 296 296 296 296 296 293 296 298 298 298 298 299 298 297 298 297 294 296
293 292 291 291 292 292 292 293 293 293 293 293 293 295 295 296 296 296 296 296 297 297 297 296 296 296 297 296 297 297 297 297 298 299 298 299 299 299 299 296 295 296 297 298 299 299 297 300 300 300 299 298 297 297 298 297 296 296 296 296 296 297 297 297 297 297 298 299 298 297 297 297 296 296
291 290 289 289 289 289 288 288 290 291 291 290 292 293 294 294 294 294 294 294 295 295 295 294 295 294 296 296 296 296 296 296 297 299 299 299 299 299 299 297 296 296 295 296 297 299 299 300 300 300 298 297 297 297 296 293 295 296 295 295 296 295 296 297 296 298 299 298 297 297 296 297 297 297
288 288 287 287 286 287 287 287 287 287 288 289 289 290 290 291 292 292 292 292 292 292 292 293 292 293 293 293 295 295 295 296 297 297 295 298 298 296 295 295 296 296 295 296 296 297 298 299 299 299 297 296 297 296 296 296 294 295 296 295 295 295 295 297 296 297 297 296 295 293 294 295 296 296
287 286 286 286 286 286 286 286 286 286 286 287 287 288 289 290 290 290 291 291 290 290 289 290 290 290 291 291 291 291 292 293 295 295 294 295 295 295 296 295 294 294 295 294 295 297 298 297 297 296 295 295 294 295 297 296 295 295 296 295 295 295 295 296 295 296 296 295 295 290 292 294 294 296
287 287 286 286 286 286 286 285 286 286 286 287 287 287 287 287 289 290 290 291 291 289 290 289 289 289 289 290 289 290 289 289 291 292 291 291 291 291 292 293 293 294 294 294 294 295 297 297 297 294 291 290 287 286 288 295 295 295 293 290 294 294 294 295 295 295 294 293 294 290 287 288 292 295
288 288 287 286 286 286 285 286 286 286 286 286 287 287 287 287 289 291 290 289 290 289 289 289 289 289 289 289 289 289 289 289 289 289 290 292 291 291 289 289 290 293 293 294 295 294 295 293 294 292 291 288 287 286 286 289 292 295 295 291 290 293 292 293 293 291 293 293 292 291 288 288 290 293
289 289 288 288 287 287 286 286 286 286 286 286 287 287 288 290 290 291 292 291 289 289 289 289 289 289 289 288 288 288 289 289 289 289 289 289 288 289 289 289 290 292 293 293 294 294 294 294 292 292 291 288 287 286 286 288 287 291 292 295 288 290 291 290 288 289 291 293 292 293 291 287 290 292
292 291 290 290 290 289 288 288 287 287 288 287 287 287 287 288 289 289 289 289 290 289 289 289 289 289 289 289 289 288 288 288 288 288 288 289 290 289 289 289 289 291 291 291 292 292 293 292 293 292 291 288 287 288 287 287 287 289 290 293 294 289 289 289 289 289 290 289 292 293 292 291 291 288
292 292 292 292 291 291 291 290 290 290 289 289 290 290 289 288 288 288 288 288 288 288 289 288 288 289 288 288 288 288 289 289 288 288 288 288 288 288 288 289 289 288 289 289 289 290 290 290 292 293 291 290 290 289 288 288 288 288 288 290 292 293 289 289 288 288 287 291 292 288 288 289 288 291
292 292 292 292 292 292 291 291 291 290 290 291 290 289 290 289 288 288 288 288 288 288 288 288 288 287 287 288 288 287 287 287 288 287 288 287 287 287 287 288 287 288 289 288 289 289 290 292 291 287 294 291 290 290 288 288 286 287 287 289 291 290 291 293 293 289 287 290 289 287 287 287 287 288
293 292 293 293 293 292 293 292 291 290 290 290 289 288 289 288 288 289 288 288 288 287 288 288 288 287 288 288 288 288 287 287 287 287 288 287 287 287 288 287 287 287 288 288 288 289 292 294 291 293 292 289 290 288 287 286 287 286 287 288 288 288 289 290 290 291 292 289 286 284 285 285 286 286
293 293 293 293 293 293 292 291 291 290 289 289 288 288 288 288 289 288 288 288 288 288 288 287 288 288 287 287 287 287 287 287 287 287 287 287 287 287 286 287 287 287 289 289 289 290 290 292 294 291 290 289 288 287 286 287 287 288 288 287 287 286 287 290 289 289 288 289 290 289 288 286 284 283
293 293 293 293 293 292 292 292 291 291 291 289 289 289 288 288 287 288 288 287 287 287 287 287 287 287 287 287 288 288 287 287 287 287 287 287 287 287 286 287 287 287 287 288 288 288 288 289 289 288 287 287 288 286 287 287 287 287 288 287 287 287 287 288 287 288 288 288 288 288 287 288 289 289
292 292 292 292 291 292 291 292 292 292 291 290 288 288 288 288 288 288 288 288 287 288 287 287 287 287 287 287 287 287 288 289 288 287 288 287 287 287 287 287 286 287 287 287 287 287 287 287 288 288 287 287 287 287 287 287 287 286 286 286 287 287 287 287 286 286 286 287 288 288 288 287 287 287
Wind_Speed
9 8 10 9 6 9 8 7 7 6 4 4 4 5 6 4 4 6 6 7 6 9 7 7 7 8 8 8 10 10 9 12 13 8 8 9 8 12 14 14 13 12 12 12 12 12 12 12 12 13 13 11 11 10 10 10 9 8 7 6 6 6 7 5 4 5 7 8 8 7 7 7 6 6
8 8 8 8 8 10 9 7 6 6 6 5 5 4 5 7 9 6 8 6 7 6 8 6 8 8 9 7 10 10 9 16 15 10 9 9 9 14 15 14 14 13 13 13 13 13 13 13 13 13 13 13 12 11 10 9 9 8 9 9 7 7 6 6 5 4 4 5 9 7 7 6 6 5
9 10 10 8 8 8 8 7 6 6 6 6 3 1 2 5 7 6 3 4 4 5 9 6 6 9 10 9 10 9 9 15 15 10 9 10 12 16 12 15 14 13 13 13 13 13 14 14 14 14 14 13 13 12 10 10 9 10 11 9 9 8 7 7 6 6 7 6 9 8 8 8 7 7
8 10 9 9 8 8 7 7 7 6 5 4 4 4 5 5 9 5 4 3 3 1 6 6 6 9 9 10 9 8 9 13 18 9 10 11 16 11 8 13 14 14 14 13 13 13 14 14 14 14 13 13 13 12 12 12 11 12 10 10 10 9 9 8 7 9 9 8 9 9 9 9 9 9
7 8 10 10 10 8 8 6 6 6 6 5 5 6 5 7 8 5 4 4 3 2 1 2 6 7 9 8 11 10 11 12 10 9 7 12 11 10 8 9 13 14 14 13 13 14 14 14 13 14 14 13 13 13 13 13 12 11 11 11 11 10 10 9 9 8 9 8 9 10 10 10 9 9
8 10 11 11 9 8 9 7 7 7 6 6 6 6 7 7 6 4 4 4 6 6 3 3 1 5 9 9 11 10 12 12 10 8 8 9 11 10 8 8 9 15 14 14 14 13 14 14 14 14 13 13 13 13 13 13 12 12 12 11 11 11 10 10 10 9 9 9 9 9 9 9 9 8
9 10 11 11 8 7 9 9 8 6 6 6 7 8 6 5 5 5 4 4 5 5 5 6 7 10 11 9 10 9 11 12 11 9 10 10 9 9 10 9 8 14 15 16 14 14 14 14 14 14 14 13 13 13 13 13 12 12 12 12 11 11 11 11 11 11 10 9 9 8 8 7 7 8
9 10 9 9 8 8 9 9 8 7 6 6 7 8 6 7 10 9 6 6 4 5 6 6 9 7 9 8 8 10 11 12 11 9 10 11 10 10 10 10 9 13 18 17 16 15 15 15 15 14 14 13 13 13 13 13 13 12 12 12 12 11 11 11 11 11 11 10 9 8 7 7 8 10
10 10 10 9 9 8 9 8 7 7 10 9 8 8 7 8 9 8 5 7 6 6 7 7 7 7 8 7 7 10 12 10 9 8 11 11 10 9 11 9 10 17 21 19 18 16 16 15 15 14 14 14 13 13 13 13 13 12 12 12 12 11 11 11 11 10 9 7 7 7 8 7 8 10
8 8 9 9 8 10 10 10 8 8 8 7 7 7 8 7 7 8 5 6 8 6 9 7 7 7 8 4 5 2 2 9 9 9 9 10 10 9 9 10 8 6 8 6 8 11 12 14 15 15 14 14 14 13 13 13 13 13 12 12 12 11 11 10 9 7 6 6 6 6 6 7 8 10
9 9 9 8 8 8 8 10 9 9 8 8 9 7 5 5 8 4 2 2 3 3 5 7 3 1 2 6 8 11 12 6 8 9 8 8 9 8 10 5 6 8 10 12 16 14 14 14 12 14 15 15 15 15 14 14 13 13 13 12 11 11 10 8 6 6 6 6 6 6 7 8 9 11
8 8 8 8 8 10 11 9 7 8 9 8 9 7 6 7 6 5 3 5 7 6 6 5 1 3 1 2 1 7 1 6 7 9 8 8 7 7 6 6 9 6 10 9 7 6 7 8 11 12 13 15 16 16 14 13 12 14 12 11 11 9 6 6 6 6 6 7 7 8 8 8 8 8
5 6 9 9 8 11 12 10 12 13 10 9 9 8 7 6 7 6 6 5 6 5 2 2 2 6 6 8 8 9 10 11 13 8 9 7 8 7 6 7 9 11 10 8 8 8 10 9 8 8 8 10 14 13 13 10 15 13 11 10 8 7 8 7 7 7 7 7 7 8 8 7 7 7
8 7 8 9 15 16 11 12 13 10 12 13 10 9 9 9 7 7 6 7 7 5 5 7 7 8 6 8 8 10 9 9 10 8 10 9 7 8 7 8 5 10 10 9 8 8 8 9 8 7 9 9 10 8 8 10 10 10 11 9 9 9 8 7 6 6 5 5 5 6 6 6 6 6
8 9 9 8 11 11 9 11 15 14 14 15 11 10 15 12 11 8 8 7 11 11 9 7 7 7 8 9 7 7 9 10 10 6 9 8 8 8 9 7 6 10 11 9 9 8 9 9 9 9 9 9 8 8 10 15 12 12 14 13 10 8 8 6 4 3 2 2 3 3 3 4 4 5
5 7 7 7 8 8 9 8 10 11 12 11 10 10 14 15 12 6 8 9 8 9 9 7 8 8 8 8 7 7 10 11 8 8 8 9 9 8 8 7 8 8 12 9 9 9 8 10 9 8 6 5 5 10 12 13 13 11 11 11 10 9 7 7 6 5 5 3 3 3 2 3 3 3
9 8 6 6 7 6 10 8 7 7 7 7 9 10 11 9 11 9 7 9 14 9 9 8 7 9 7 7 6 1 5 3 7 8 8 8 8 8 8 9 8 6 11 10 8 8 8 10 6 5 3 5 5 6 12 17 15 15 15 14 13 11 11 10 9 8 6 5 5 4 3 2 2 3
9 7 4 6 7 5 6 6 7 8 6 7 3 1 2 4 4 5 9 10 8 9 9 8 8 8 7 7 2 2 4 4 4 2 2 5 7 7 5 4 7 9 10 10 8 4 7 8 8 7 6 5 8 7 13 18 17 16 16 15 13 13 12 11 10 9 8 7 6 6 5 5 6 6
7 5 6 6 5 3 5 7 7 7 7 7 7 6 4 5 3 3 3 2 1 5 4 2 1 1 3 2 8 3 2 4 3 5 3 3 1 6 4 5 5 5 4 3 6 5 5 7 9 6 6 7 8 7 12 17 17 16 15 14 14 13 12 11 10 9 8 7 7 7 7 8 8 8
7 6 7 9 9 8 7 10 15 13 9 9 8 8 9 7 4 4 2 2 2 2 1 6 6 9 2 5 4 4 6 6 4 7 8 9 6 4 5 5 2 5 3 6 4 5 3 5 11 7 5 8 9 5 6 12 15 14 14 14 14 14 13 12 11 10 9 8 8 8 8 9 10 10
7 6 8 9 8 8 8 12 17 15 11 7 8 8 9 7 6 5 3 8 9 9 13 12 11 11 11 12 13 10 8 6 4 4 5 5 6 7 5 4 4 3 2 5 6 6 7 6 9 8 5 8 9 8 7 7 11 15 15 15 14 14 13 13 12 10 9 8 7 8 9 12 13 13
5 7 12 5 6 8 8 11 14 14 11 7 6 10 10 8 8 5 5 5 7 12 15 14 13 13 13 15 15 15 14 11 5 7 7 4 1 1 5 6 3 2 5 5 6 2 7 6 9 10 6 7 5 7 6 8 8 11 12 13 14 13 13 13 12 11 10 9 7 6 4 10 12 7
9 9 8 12 8 4 7 12 14 14 10 6 8 8 9 8 7 6 7 8 8 7 8 7 8 9 10 10 11 13 18 16 11 6 4 7 8 6 2 6 7 5 3 5 7 4 4 8 6 10 7 4 4 6 6 6 5 4 5 7 9 12 13 13 13 12 10 9 7 8 10 7 6 6
12 12 10 11 10 9 8 1 10 13 13 8 9 8 8 10 10 8 7 6 9 8 8 7 8 8 8 9 9 9 10 11 11 10 8 5 5 8 7 4 2 4 2 4 7 2 3 3 5 2 4 6 4 5 4 3 4 5 6 7 7 9 12 12 9 10 10 9 9 10 13 14 11 6
12 12 12 12 11 11 11 9 3 10 9 4 9 10 9 9 11 11 9 10 11 10 10 9 9 9 9 9 9 9 8 8 7 8 9 8 7 7 9 9 9 7 3 1 5 3 5 4 5 4 4 2 6 7 6 7 6 5 7 8 8 6 7 6 6 5 7 10 10 10 11 15 16 11
12 13 13 12 14 14 16 16 13 9 6 12 7 8 13 17 16 11 10 10 9 8 8 8 7 8 8 9 9 9 8 7 8 8 8 8 9 9 8 9 11 9 6 5 7 6 6 7 4 3 3 3 5 6 7 6 6 5 8 8 9 9 8 7 6 6 4 4 5 6 9 14 15 14
13 11 13 13 22 14 21 20 17 16 17 12 10 18 16 16 17 14 9 9 9 8 8 7 8 7 7 8 8 7 8 7 8 9 8 9 11 12 12 12 9 9 6 6 6 7 8 5 3 6 5 3 5 3 5 5 4 6 5 5 8 8 9 8 6 5 6 6 6 11 12 12 14 13
12 12 12 15 24 18 19 23 19 19 17 14 16 14 15 15 11 8 10 10 11 11 11 10 9 8 7 7 7 7 6 6 7 7 7 7 9 11 9 9 9 8 7 7 8 8 7 9 5 5 8 7 7 5 5 4 7 5 6 7 7 8 8 7 7 7 7 6 5 6 6 5 5 7
11 15 19 19 21 22 20 21 20 16 18 21 19 18 16 13 8 9 10 11 11 12 11 10 9 8 7 6 6 7 7 7 7 7 7 7 9 10 11 10 10 9 7 7 8 7 7 6 7 6 7 6 7 5 4 4 4 4 6 7 6 6 7 7 6 7 6 6 7 7 6 6 5 4
19 19 18 18 19 19 20 15 13 11 13 20 21 20 17 10 8 8 9 10 12 11 10 10 10 7 6 7 7 6 5 5 6 6 6 7 7 7 8 10 9 9 9 8 8 7 7 7 7 6 6 7 7 5 4 5 6 6 7 6 6 7 7 7 6 5 6 6 6 6 5 6 5 4
11 13 14 13 16 14 19 18 17 17 17 15 13 12 11 10 9 7 8 9 10 9 9 9 9 7 6 7 9 8 7 7 6 4 6 7 7 7 7 10 8 8 7 7 7 7 8 8 8 8 8 5 6 5 4 4 7 7 5 6 7 5 3 5 5 5 5 6 5 6 5 6 3 3
9 9 12 15 12 13 13 13 12 12 12 11 10 10 10 10 9 10 13 13 11 9 8 8 8 9 9 9 7 7 8 7 7 7 7 5 6 5 6 8 7 6 6 6 6 7 8 7 7 7 8 6 5 4 5 6 7 7 7 7 7 6 6 5 5 4 3 5 5 4 5 6 5 3
11 11 13 12 13 12 12 11 11 11 12 11 10 11 10 10 10 9 8 10 9 7 8 8 9 9 8 7 7 9 9 9 9 8 9 8 8 7 8 8 6 6 6 5 5 6 6 7 9 9 8 8 7 7 6 7 6 5 6 6 6 6 5 5 4 5 3 3 2 5 4 5 5 5
9 10 10 10 10 10 10 11 11 11 10 10 10 9 9 9 9 9 9 9 9 9 10 9 9 9 8 8 8 7 7 6 7 7 7 5 6 7 6 6 6 5 5 4 4 5 5 6 7 7 8 9 9 9 6 5 5 5 5 5 6 6 5 4 4 4 4 3 3 3 5 3 3 3
10 9 9 9 9 9 9 9 9 8 8 8 8 9 10 10 10 10 9 8 7 8 9 8 8 8 8 7 6 6 5 5 5 7 7 7 7 6 6 6 5 5 6 6 5 4 4 5 6 5 5 5 6 7 9 8 5 4 4 5 5 5 5 4 4 4 3 4 5 4 3 4 2 2
8 8 8 9 9 8 10 9 7 8 7 7 7 7 8 8 8 9 7 6 7 7 7 8 7 7 7 7 6 6 6 5 6 6 5 6 6 5 6 5 3 6 6 5 5 5 5 4 4 5 5 4 4 5 4 8 9 4 6 4 4 4 3 3 3 4 4 3 4 5 3 3 3 2
7 6 7 7 8 8 8 8 8 8 8 8 7 7 7 7 8 8 7 6 8 7 7 7 7 6 6 6 6 6 6 6 6 6 5 6 6 6 5 6 5 4 7 6 6 6 5 4 3 5 6 5 6 5 3 3 8 9 5 5 3 3 3 3 3 3 2 3 3 3 3 4 2 2
5 5 6 6 6 7 7 7 7 7 7 7 7 7 6 7 7 7 6 7 6 6 6 6 6 6 5 4 5 5 5 4 5 5 4 4 5 5 5 5 6 6 6 7 8 7 7 7 6 6 6 7 7 5 3 2 2 6 8 4 5 2 3 4 3 1 1 1 2 0 3 5 4 4
6 5 5 6 6 5 6 6 6 6 6 6 7 6 6 6 7 6 5 5 6 5 5 6 6 5 6 6 5 5 5 5 5 4 5 5 4 4 4 6 6 5 7 7 7 7 6 6 6 6 6 5 4 3 6 5 2 1 6 9 5 6 6 3 5 3 2 1 1 1 4 4 5 6
5 5 5 5 5 5 5 5 6 6 6 6 7 6 6 6 5 5 4 4 5 5 5 5 4 5 5 5 5 5 5 4 5 4 4 6 5 5 4 5 6 6 8 7 7 6 5 5 4 4 4 5 4 4 6 6 3 2 3 6 8 7 3 4 5 3 3 4 5 1 3 3 2 1
4 5 5 4 4 5 4 4 4 4 5 5 5 5 5 4 4 4 4 4 4 4 5 4 4 4 4 4 4 4 4 4 4 4 4 5 4 4 4 3 3 7 8 6 6 5 3 1 1 2 4 3 3 3 4 5 3 2 2 1 6 10 8 6 4 3 1 2 2 2 4 3 1 3
4 4 5 4 4 4 4 5 5 5 6 5 5 5 3 3 4 4 4 4 4 4 4 5 4 5 5 5 5 5 5 4 3 3 2 3 5 6 6 7 5 5 8 6 5 4 3 1 2 2 2 3 1 1 2 5 5 4 3 2 2 6 7 8 7 4 2 2 3 3 3 3 2 3
4 4 3 3 4 4 4 4 4 4 3 3 3 3 2 1 0 1 2 2 2 2 2 2 2 4 4 4 4 4 4 3 3 4 5 5 5 5 5 6 6 4 7 6 5 4 3 3 2 0 0 1 2 3 5 4 5 5 3 4 3 3 3 5 6 6 5 3 4 4 2 2 1 1
4 4 4 3 3 4 3 2 3 2 1 1 1 2 2 1 2 2 2 3 3 3 3 3 4 4 4 3 3 3 5 3 2 3 4 4 4 3 4 3 6 6 5 5 5 4 4 4 3 3 4 4 2 3 3 3 4 4 5 3 3 3 2 0 0 3 4 5 2 3 3 5 5 4
4 4 4 4 4 4 4 2 1 1 1 1 4 6 5 4 4 4 4 4 4 4 4 4 3 3 3 3 3 3 1 2 2 2 1 2 2 2 1 3 5 6 5 4 5 4 4 3 3 5 4 4 2 3 3 3 3 3 3 5 6 4 3 2 3 1 2 2 5 6 6 4 4 5
Wind_Direction
211 209 208 211 193 223 232 212 196 192 186 187 184 183 193 223 207 184 192 190 192 196 191 176 181 177 163 156 147 149 157 158 161 166 164 165 169 174 170 168 164 164 165 159 156 155 153 150 150 152 151 149 151 146 146 152 151 154 154 142 137 140 140 135 149 176 185 181 155 133 132 142 156 164
212 211 212 209 203 208 218 224 189 188 198 197 213 196 206 209 223 212 189 196 188 182 193 196 169 166 166 153 141 153 157 163 167 171 169 168 174 173 172 168 167 168 167 163 159 158 157 156 158 159 160 156 154 153 157 162 166 167 171 167 157 157 157 155 160 173 201 179 138 150 157 169 176 188
213 210 208 207 213 217 209 210 196 195 189 194 187 317 343 280 258 203 233 180 196 166 180 207 148 162 165 169 153 155 157 169 176 175 162 173 168 169 173 170 170 171 170 165 163 163 162 164 166 168 169 165 161 163 166 173 178 183 183 173 168 172 172 173 179 192 196 173 167 172 180 187 197 207
221 216 211 209 213 214 218 209 197 197 189 124 124 185 201 241 255 183 192 164 193 347 162 164 150 160 167 169 167 145 159 173 186 175 165 164 159 167 172 177 173 175 171 171 171 169 166 169 174 175 177 174 172 170 173 176 184 189 186 175 180 183 184 184 191 202 204 197 191 196 197 205 210 216
222 228 222 215 212 205 208 207 201 193 189 154 180 196 205 229 234 187 162 174 140 289 228 141 168 174 169 173 168 159 161 172 193 192 158 150 159 166 170 176 181 178 176 175 176 174 170 173 178 180 181 180 178 177 177 181 186 190 189 181 187 192 193 195 196 209 215 214 212 211 212 218 221 222
216 226 224 218 210 205 209 214 208 196 183 176 175 203 210 236 227 198 179 169 160 196 192 176 123 116 216 180 185 152 160 172 190 178 138 157 161 169 166 173 183 185 180 179 180 178 175 177 183 182 186 183 182 179 181 184 188 192 192 191 194 199 202 202 203 207 219 227 227 226 225 227 229 233
226 224 230 224 209 205 212 211 212 190 183 182 194 206 209 239 262 224 189 146 178 174 184 180 192 173 199 180 170 157 166 171 187 160 154 160 169 169 170 174 180 185 185 183 183 182 180 182 185 185 188 187 185 184 185 188 192 196 195 198 201 206 208 210 210 212 219 225 229 234 239 243 244 245
234 227 227 233 218 206 212 210 209 195 184 191 201 213 206 204 229 228 175 175 163 176 188 196 191 175 175 179 165 165 168 172 187 162 159 166 177 173 174 176 181 183 186 186 185 185 185 185 187 188 189 189 189 189 190 192 195 198 199 200 206 211 214 216 219 221 224 229 237 245 248 252 256 262
231 222 231 232 227 218 218 214 207 193 192 197 198 198 205 221 227 222 174 180 179 180 201 201 199 169 182 175 163 173 161 177 176 182 168 179 183 182 170 177 183 177 185 186 187 188 188 188 188 189 190 192 193 194 195 197 199 201 201 204 207 212 217 222 227 232 237 246 255 264 270 277 277 276
227 236 234 227 219 222 218 218 212 210 205 195 204 203 196 202 226 222 184 176 196 200 200 206 188 179 166 99 119 327 206 172 172 189 186 176 183 185 175 184 172 129 167 168 191 192 189 191 191 192 193 196 198 199 200 202 203 202 203 205 207 212 219 225 232 240 250 257 263 269 276 280 278 276
218 224 230 233 228 225 227 225 214 207 205 195 202 208 209 214 209 204 153 102 64 2 339 311 266 114 71 138 161 172 198 181 180 174 192 187 177 179 180 158 135 157 173 187 184 184 189 191 192 196 197 199 201 204 205 207 205 205 206 205 207 213 218 227 235 244 247 255 259 262 262 264 268 274
209 212 222 227 233 233 229 224 207 194 200 198 202 197 192 210 186 164 146 135 180 192 184 187 113 45 41 278 100 51 8 185 232 195 188 183 181 173 172 142 144 153 160 171 184 210 198 194 197 198 204 207 207 208 210 210 208 211 206 203 207 207 209 212 222 231 241 246 251 253 258 262 268 274
240 228 234 239 223 233 234 214 203 201 191 190 199 189 172 192 180 166 170 151 156 191 180 154 132 188 193 195 183 175 195 193 201 200 180 174 179 161 149 146 152 155 164 178 178 184 187 190 192 196 203 217 212 214 206 211 216 213 202 203 194 193 196 204 214 227 236 247 256 264 270 275 276 277
240 234 216 215 237 239 206 196 211 211 202 196 199 181 174 189 181 173 166 161 154 165 198 188 186 192 198 199 199 183 190 194 207 196 175 168 168 148 156 153 165 164 161 165 179 192 183 190 190 190 209 217 196 202 190 216 206 199 197 186 188 192 193 199 214 225 242 258 271 276 278 280 283 284
223 232 232 230 227 234 197 213 227 209 203 194 179 172 177 184 183 173 174 162 163 186 196 192 177 187 194 203 202 156 180 227 217 188 172 161 154 156 162 179 167 173 163 171 173 190 181 185 190 194 210 210 190 184 199 207 190 170 182 190 183 176 182 189 182 195 208 247 272 289 301 303 304 302
242 235 223 234 230 197 177 190 219 200 189 183 183 184 178 190 192 182 180 164 146 173 182 183 184 185 196 199 200 189 189 214 208 180 168 164 166 164 167 174 184 181 168 168 174 188 178 182 195 192 213 206 171 187 198 172 154 143 149 143 146 141 130 126 120 117 99 80 61 28 13 349 336 328
243 233 224 239 230 208 171 179 205 217 183 182 187 166 156 153 146 125 91 132 167 179 175 179 186 193 192 197 205 187 180 184 181 163 163 168 166 170 175 185 185 184 172 159 173 176 181 179 165 90 39 78 74 86 111 124 126 120 119 120 118 116 113 109 107 105 107 107 103 99 91 74 53 50
232 224 174 201 203 191 169 173 194 200 170 157 153 187 180 126 110 109 115 105 122 155 174 181 187 197 197 206 142 177 174 144 134 108 149 161 159 174 181 200 172 183 173 173 158 168 168 173 107 106 67 70 84 90 112 114 118 120 120 120 122 124 127 128 130 129 127 124 120 113 104 85 76 69
250 194 201 227 220 174 161 187 204 187 173 165 167 143 80 62 61 50 13 44 137 172 194 177 85 42 273 168 152 187 132 108 94 124 111 355 188 125 99 50 96 97 37 124 127 145 44 92 102 91 102 92 89 101 113 117 119 122 127 132 134 134 133 133 127 119 109 102 93 84 79 80 76 74
243 227 216 212 211 212 183 187 201 197 176 177 171 156 134 130 95 62 3 304 288 323 322 113 162 218 79 50 106 115 104 82 56 59 67 61 49 56 84 119 52 77 36 27 95 92 101 110 109 110 111 102 95 95 91 116 121 129 138 142 146 142 131 119 109 100 96 91 87 85 88 92 91 90
269 234 206 194 196 196 205 191 193 200 183 184 172 150 131 135 122 118 110 50 61 76 71 75 99 96 96 84 78 78 105 130 135 121 110 141 165 156 148 129 101 39 14 30 25 106 119 141 120 123 121 121 119 119 132 144 148 154 156 155 140 125 119 115 109 108 108 107 103 105 113 114 111 100
26 22 17 336 188 193 205 188 184 191 180 178 144 130 144 134 127 122 110 89 70 85 85 78 69 66 72 76 69 63 60 64 95 151 151 136 108 265 159 130 102 99 44 11 347 90 125 135 122 117 117 93 114 143 161 165 179 175 152 125 119 119 117 117 120 121 113 100 91 82 96 140 135 122
6 358 7 15 8 309 203 195 196 182 162 160 150 153 135 134 127 135 134 123 119 107 99 91 81 68 54 58 59 50 47 45 46 55 115 141 129 115 73 111 126 88 12 346 337 99 99 123 129 131 140 135 143 179 161 156 159 156 114 106 110 121 124 123 117 109 105 103 88 72 65 77 138 138
4 355 348 351 9 41 19 174 194 184 169 154 163 162 151 143 137 151 139 122 114 108 97 86 79 80 70 62 62 63 60 48 43 51 50 57 119 134 138 125 69 101 64 335 335 88 106 96 124 108 101 130 151 166 120 159 176 165 134 124 121 125 115 108 102 114 118 112 100 85 77 66 55 78
4 356 349 340 345 51 55 41 94 152 153 204 174 169 162 146 139 137 124 123 113 100 95 90 83 75 64 54 56 53 45 48 48 49 52 54 50 94 114 107 99 94 97 286 307 60 84 61 97 83 79 47 116 129 177 173 181 168 159 140 130 135 122 119 121 115 109 99 90 79 74 80 68 62
9 360 345 355 334 42 54 58 44 54 120 141 133 122 122 124 127 121 119 118 117 112 104 105 100 91 85 75 64 55 44 40 54 48 53 57 63 60 74 107 116 110 63 11 24 43 85 60 24 76 77 88 85 124 150 171 176 177 136 157 145 146 143 144 138 149 154 114 92 94 88 83 83 75
11 2 4 355 337 33 61 52 48 56 63 59 104 116 112 114 115 116 117 120 116 107 99 84 73 72 79 88 88 82 78 60 57 60 45 52 70 79 81 80 80 95 107 68 56 72 85 84 14 76 84 78 90 78 93 104 110 99 87 107 120 144 149 141 145 142 112 119 128 106 83 76 83 81
5 3 12 4 355 357 51 59 45 56 62 68 56 64 87 84 80 89 93 82 87 91 90 86 81 76 74 79 79 79 83 85 81 83 84 75 75 85 90 90 88 79 80 70 60 63 91 111 116 84 80 72 76 73 89 55 76 88 104 81 66 62 73 86 96 125 147 145 129 93 89 83 75 78
9 12 13 18 13 3 21 48 49 38 53 58 58 51 48 60 75 81 94 100 96 93 92 93 87 73 61 67 84 95 97 95 90 91 90 84 80 81 78 74 71 68 67 65 64 63 68 73 81 77 80 76 80 74 82 99 103 78 76 74 56 56 69 70 69 64 72 76 77 80 83 90 70 78
9 12 14 14 22 18 16 29 44 38 32 50 56 53 50 51 59 73 88 92 94 96 96 89 88 82 74 68 68 59 59 81 91 100 99 97 85 80 84 78 64 56 53 50 51 49 52 59 61 64 80 87 96 100 89 82 79 93 82 90 113 87 67 80 69 68 83 87 78 91 107 101 111 101
6 10 15 21 23 30 24 24 39 46 37 38 42 54 55 51 47 55 70 89 92 92 92 89 85 80 74 70 61 63 67 64 55 60 93 94 91 85 83 89 85 74 58 58 59 59 60 65 64 61 72 68 63 55 56 67 88 98 85 82 79 94 96 86 89 74 70 85 95 96 103 98 74 85
5 11 15 22 22 23 29 25 25 35 40 39 35 46 57 57 49 56 73 75 76 76 82 91 88 76 64 57 58 62 60 51 44 46 65 83 92 86 90 84 84 85 78 62 62 63 70 73 79 74 71 72 70 31 37 62 87 88 84 75 84 85 78 79 74 77 79 97 98 101 108 112 119 106
16 19 23 21 22 24 26 25 26 29 37 39 34 37 49 58 54 43 41 61 66 72 73 72 74 78 74 62 50 52 49 38 33 27 46 45 68 68 71 86 97 94 91 73 65 57 56 60 60 69 72 64 59 60 63 77 65 77 91 93 93 87 91 83 85 61 71 89 116 123 114 118 138 156
33 28 29 27 26 26 27 28 27 25 28 32 34 35 36 48 57 54 49 50 57 59 63 63 67 67 68 64 59 61 61 47 37 29 38 41 53 81 89 102 109 122 121 123 107 94 79 68 74 74 77 73 67 59 54 67 91 91 84 91 93 93 88 89 67 80 70 80 80 81 100 83 77 94
32 27 29 25 28 30 32 34 32 28 30 28 32 34 39 41 43 45 46 39 50 60 66 63 62 64 69 71 65 68 64 72 65 54 49 58 53 58 74 88 92 98 109 112 115 120 115 115 109 89 63 69 69 57 43 43 63 42 95 78 86 89 81 76 79 73 74 48 66 71 78 92 103 108
34 29 31 29 27 28 34 30 31 33 32 31 31 31 47 48 48 52 49 37 53 59 63 68 67 69 71 74 72 69 64 65 61 58 60 59 64 61 58 63 80 94 95 102 90 84 107 125 122 112 104 90 77 56 21 17 44 49 71 71 52 66 53 58 66 89 69 66 94 109 119 130 111 95
39 33 28 30 23 26 27 22 31 31 31 27 32 35 44 51 53 55 46 46 59 60 63 68 69 64 64 62 61 55 52 54 57 55 58 59 69 69 63 43 30 83 97 74 72 67 68 75 73 111 127 109 98 100 8 315 18 34 79 87 56 57 63 40 54 63 121 117 112 134 159 145 149 117
49 41 40 41 42 38 31 18 31 33 32 26 31 36 45 49 55 53 47 56 57 60 57 60 59 59 59 63 73 72 66 62 66 64 66 71 72 64 74 66 55 59 76 76 65 61 55 55 50 52 85 106 115 120 114 10 4 3 12 66 99 33 52 54 25 280 132 90 117 262 91 101 159 146
44 47 48 50 52 52 47 39 37 39 35 33 34 36 37 44 48 52 52 57 55 59 59 59 58 65 71 66 68 72 71 62 59 55 51 41 55 67 60 72 67 58 67 69 62 57 55 56 53 56 65 88 98 123 142 145 125 225 9 34 71 60 29 48 34 359 80 57 263 79 102 130 80 92
38 48 58 60 63 67 68 61 58 55 55 52 51 46 47 52 54 54 55 46 47 47 54 56 57 58 61 65 71 68 69 76 74 65 55 54 58 64 58 70 102 90 80 76 71 59 58 59 66 86 103 127 126 126 129 124 114 47 39 20 45 102 91 62 60 58 0 360 358 42 135 92 107 160
28 35 39 48 54 59 70 78 76 72 68 65 64 57 56 58 62 55 57 62 53 55 55 54 54 57 57 67 70 85 88 81 81 69 60 64 65 68 85 68 92 91 92 91 89 81 72 112 191 5 50 82 96 66 48 78 90 112 68 26 17 30 48 71 84 80 109 334 344 38 137 185 160 145
30 43 38 38 43 46 52 66 71 68 70 68 73 85 82 76 80 85 74 62 59 59 64 63 62 58 58 58 58 55 59 61 58 53 60 65 47 35 40 51 72 91 107 112 121 134 150 85 62 45 33 23 51 80 115 120 140 157 175 180 50 40 37 42 58 73 106 95 62 49 12 1 14 53
34 39 39 40 46 57 57 58 62 64 73 98 122 129 128 118 335 56 76 78 72 64 53 53 70 88 88 80 72 85 79 64 46 36 43 64 65 59 62 56 34 82 122 125 132 139 148 138 118 169 14 128 91 114 116 136 128 143 165 157 148 84 23 25 33 25 25 54 105 142 154 152 102 62
36 32 29 24 31 54 67 59 59 76 127 164 204 198 175 112 48 32 44 66 61 60 66 72 68 64 64 82 91 74 64 63 70 72 65 88 105 102 97 87 75 69 79 110 132 145 157 144 142 118 71 64 69 79 118 126 149 161 174 167 120 111 145 184 1 1 342 323 277 162 201 191 191 181
31 40 44 29 25 23 26 20 38 57 47 41 43 49 56 63 58 54 49 39 32 34 26 25 53 70 66 59 67 68 50 69 52 19 78 108 97 70 46 75 76 72 66 90 117 112 112 107 83 70 76 57 51 101 86 96 118 103 67 85 141 155 162 143 142 243 275 277 257 230 233 217 222 229